,

(GMT )
Al Udeid

Weather History for KQIR - January, 2013

Change the Weather History Date:

Saturday, January 12, 2013

  Actual Average Record
Temperature  
Mean Temperature 58 °F -  
Max Temperature 64 °F - - ()
Min Temperature 52 °F - - ()
Degree Days  
Heating Degree Days 7    
Growing Degree Days 8 (Base 50)    
Moisture  
Dew Point 43 °F    
Average Humidity 60    
Maximum Humidity 71    
Minimum Humidity 48    
Precipitation  
Precipitation 0.00 in - - ()
Sea Level Pressure  
Sea Level Pressure 30.28 in    
Wind  
Wind Speed 17 mph ()    
Max Wind Speed 29 mph    
Max Gust Speed 34 mph    
Visibility 6.2 miles    
Events      
T = Trace of Precipitation, MM = Missing Value Source: Averaged Metar Reports

Daily Weather History Graph

Daily Weather History Graph

Search for Another Location

Airport or City:

Trip Planner

Search our weather history database for the weather conditions in past years. The results will help you decide how hot, cold, wet, or windy it might be!

Date:

Astronomy

Jan. 12, 2013 Rise Set
Actual Time 6:21 AM AST 5:04 PM AST
Civil Twilight 5:57 AM AST 5:29 PM AST
Nautical Twilight 5:29 AM AST 5:57 PM AST
Astronomical Twilight 5:01 AM AST 6:24 PM AST
Moon 6:31 AM AST (1/12) 5:55 PM AST (1/12)
Length of Visible Light 11h 31m
Length of Day
10h 42m
New Moon, 0% of the Moon is Illuminated
Jan 12
New Moon
Jan 19
First Quarter
Jan 27
Full
Feb 3
Last Quarter
Feb 10
New

Hourly Weather History & Observations

Time (AST) Temp. Dew Point Humidity Pressure Visibility Wind Dir Wind Speed Gust Speed Precip Events Conditions
12:55 AM 54.0 °F 39.7 °F 59% 30.29 in 6.2 mi NW 15.0 mph - N/A   Clear
1:55 AM 53.2 °F 41.2 °F 64% 30.27 in 6.2 mi NW 17.3 mph - N/A   Clear
2:55 AM 53.6 °F 41.5 °F 64% 30.26 in 6.2 mi NW 19.6 mph - N/A   Clear
3:55 AM 53.4 °F 41.7 °F 65% 30.26 in 6.2 mi WNW 19.6 mph - N/A   Clear
4:55 AM 53.6 °F 41.9 °F 65% 30.27 in 6.2 mi NW 18.4 mph - N/A   Clear
5:55 AM 53.8 °F 42.4 °F 65% 30.28 in 6.2 mi NW 21.9 mph - N/A   Clear
6:55 AM 53.2 °F 42.6 °F 67% 30.32 in 6.2 mi WNW 16.1 mph - N/A   Clear
7:55 AM 54.9 °F 43.2 °F 65% 30.33 in 6.2 mi NW 18.4 mph - N/A   Clear
8:55 AM 58.3 °F 43.9 °F 59% 30.35 in 5.6 mi NW 25.3 mph - N/A   Haze
9:55 AM 60.3 °F 43.0 °F 53% 30.32 in 6.2 mi NW 27.6 mph - N/A   Clear
10:55 AM 61.5 °F 43.5 °F 52% 30.31 in 6.2 mi NW 26.5 mph 32.2 mph N/A   Partly Cloudy
11:55 AM 63.1 °F 44.4 °F 50% 30.27 in 6.2 mi NW 28.8 mph 33.4 mph N/A   Clear
12:55 PM 64.2 °F 45.1 °F 50% 30.26 in 6.2 mi NW 23.0 mph 34.5 mph N/A   Clear
1:55 PM 64.8 °F 44.4 °F 48% 30.26 in 6.2 mi NW 26.5 mph 32.2 mph N/A   Clear
2:55 PM 63.7 °F 43.7 °F 48% 30.27 in 6.2 mi NW 25.3 mph 31.1 mph N/A   Clear
3:55 PM 62.2 °F 43.7 °F 51% 30.26 in 6.2 mi NNW 25.3 mph 29.9 mph N/A   Clear
4:55 PM 60.3 °F 43.7 °F 54% 30.27 in 6.2 mi NNW 24.2 mph - N/A   Clear
5:55 PM 58.6 °F 43.7 °F 58% 30.27 in 6.2 mi NW 16.1 mph - N/A   Clear
6:55 PM 57.2 °F 43.5 °F 60% 30.28 in 6.2 mi NW 13.8 mph - N/A   Clear
7:55 PM 55.8 °F 43.5 °F 63% 30.30 in 6.2 mi WNW 6.9 mph - N/A   Clear
8:55 PM 54.3 °F 43.0 °F 66% 30.30 in 6.2 mi WNW 9.2 mph - N/A   Clear
9:55 PM 52.9 °F 43.2 °F 70% 30.28 in 6.2 mi WNW 9.2 mph - N/A   Clear
10:55 PM 52.7 °F 43.3 °F 70% 30.27 in 6.2 mi WNW 8.1 mph - N/A   Clear
11:55 PM 52.5 °F 43.3 °F 71% 30.27 in 6.2 mi WNW 11.5 mph - N/A   Clear